{"data":{"norad_id":53138,"intl_designator":"2022-083G","name":"STARLINK-4141","alt_names":[],"object_type":"PAYLOAD","status":"ACTIVE","operator":null,"country":"US","launch_date":"2022-07-17","launch_site_code":"AFETR","launch_vehicle":null,"mission":null,"orbit_class":"UNKNOWN","rcs_meters":null,"size_class":null,"mass_kg":null,"dimensions":null,"purposes":["comms"],"wikipedia_slug":null,"has_3d_model":false,"image_url":null,"decayed_at":null,"tle_current":{"epoch":"2026-09-19T21:59:52.145664Z","epoch_age_seconds":122660,"freshness":"FRESH","line1":"1 53138U 22083G   26262.91657576  .00000394  00000+0  24447-4 0  9999","line2":"2 53138  53.1614   6.5494 0001148  85.3451 274.7682 15.31708923231528","mean_motion":15.31708923,"eccentricity":0.0001148,"inclination_deg":53.1614,"raan_deg":6.5494,"arg_perigee_deg":85.3451,"mean_anomaly_deg":274.7682,"bstar":2.4447e-5,"rev_number":23152,"period_min":94.012640285441,"perigee_km":469.92714833059,"apogee_km":471.49964438159,"semimajor_km":6848.8503963561,"source":"CELESTRAK","updated_at":"2026-09-20T09:00:40.179401Z"}}}